Theta_e
309 310 310 310 310 310 309 310 310 311 311 311 311 310 310 309 308 311 313 313 313 312 312 313 313 313 314 314 315 320 326 329 329 329 331 333 335 340 344 346 347 348 348 349 347 344 344 344 344 343 343 343 343 343 342 341 340 339 338 338 337 336 336 337 337 338 339 339 338 338 338 338 338 339 339 340 339 339 340 340 340 340 340 341 341 340
309 310 310 310 310 311 310 310 310 310 311 312 311 309 309 308 309 311 312 312 313 312 312 313 313 313 314 314 315 320 325 328 330 333 335 337 339 341 342 344 347 348 348 347 344 344 344 343 344 343 343 344 344 343 342 340 340 339 339 338 337 336 336 337 337 338 339 338 338 338 338 338 338 339 339 340 339 339 339 340 340 339 339 340 340 339
309 310 310 310 310 311 310 309 310 310 311 312 310 309 308 309 310 311 312 312 312 311 312 313 313 313 315 315 315 319 323 327 328 330 334 336 339 340 339 342 345 348 348 345 343 343 343 343 343 342 343 344 344 344 342 341 340 339 339 337 336 336 336 336 337 338 339 338 338 338 338 338 338 339 339 339 339 339 339 339 339 338 338 339 339 338
310 310 310 310 310 310 310 309 309 310 310 311 310 308 307 309 309 309 311 312 312 312 312 314 313 313 315 315 315 318 323 325 324 327 330 333 336 338 340 342 346 348 348 346 342 341 342 342 342 342 343 343 344 344 342 342 340 339 338 337 336 336 336 336 337 338 338 338 338 337 337 338 338 338 339 339 339 338 338 338 338 337 338 338 337 336
311 310 310 310 309 309 309 309 309 309 310 310 310 309 308 310 309 309 311 311 311 311 312 314 311 311 314 317 318 320 322 324 325 329 332 335 338 340 341 345 346 347 348 347 344 341 341 341 342 342 343 343 343 344 343 342 340 339 338 337 337 337 336 336 337 337 337 337 337 336 337 338 339 339 339 339 338 337 337 337 337 337 337 337 336 335
310 310 310 309 308 308 308 308 309 308 309 310 310 310 310 311 310 311 312 311 309 309 311 312 309 309 313 317 318 319 321 325 330 334 334 335 338 340 342 343 344 346 345 346 345 342 341 341 341 342 342 343 343 344 343 341 341 340 339 339 338 338 337 336 337 337 336 336 336 336 337 338 339 339 338 338 337 337 336 336 336 337 336 336 335 335
310 310 309 309 308 308 308 308 308 309 309 309 310 311 311 311 311 311 311 309 308 308 311 311 309 308 310 314 317 317 320 324 330 334 334 334 335 337 340 340 342 344 344 344 344 342 341 340 340 342 342 343 343 343 342 342 341 341 340 339 339 337 337 336 336 335 334 335 336 336 338 339 339 339 338 337 336 336 336 335 336 336 335 334 334 334
310 309 308 309 308 307 307 308 308 308 309 309 310 311 311 311 310 311 311 309 308 310 312 311 310 308 308 312 316 319 321 321 326 332 332 332 334 336 337 339 341 342 343 344 343 341 341 340 340 340 342 342 343 343 342 342 342 342 340 338 338 337 337 337 336 335 331 332 336 338 339 340 339 339 338 337 336 336 336 335 335 335 334 334 334 333
310 308 308 308 308 308 307 308 308 308 309 310 311 310 311 311 311 311 310 309 310 312 310 309 310 308 308 314 319 321 321 319 322 328 329 329 332 334 336 339 341 342 343 343 341 341 340 341 340 339 341 341 342 343 342 342 341 339 337 336 337 337 338 337 337 334 328 327 334 338 339 340 339 339 338 337 336 335 335 335 334 334 334 334 333 332
309 309 309 309 308 308 308 308 308 308 309 311 310 310 311 311 311 311 310 309 310 312 310 309 309 307 308 314 320 321 318 317 320 323 324 325 329 334 338 340 340 342 343 341 340 339 340 341 339 339 340 340 342 343 342 342 338 334 334 335 336 337 338 337 337 332 324 325 333 338 340 340 338 338 337 336 336 335 335 334 334 334 334 333 332 331
308 308 309 309 309 309 308 308 308 308 310 311 310 310 310 310 311 311 311 310 310 312 310 309 308 308 307 310 317 320 317 317 320 321 321 324 327 331 337 339 340 342 343 341 339 338 340 341 339 339 340 340 341 342 343 342 336 332 334 335 335 337 337 337 337 333 327 329 335 337 339 340 338 336 336 335 336 335 334 334 334 334 333 332 331 330
308 309 309 309 309 310 309 308 308 308 309 310 310 310 310 310 311 311 311 311 312 312 310 309 310 309 307 308 315 320 319 318 319 319 321 324 325 327 331 336 338 340 342 341 339 338 339 340 339 340 339 340 341 341 342 339 334 333 334 333 334 336 337 337 337 335 333 334 336 336 337 338 337 336 336 335 335 335 335 335 335 334 333 332 331 329
308 308 309 309 309 309 309 308 308 308 309 310 310 309 310 311 312 312 311 311 312 311 309 310 311 309 308 311 316 320 320 319 318 320 321 322 322 323 328 334 337 339 340 340 338 338 338 338 340 340 339 340 341 341 341 336 334 335 334 333 335 336 337 337 336 336 335 335 335 336 336 336 336 336 336 336 335 335 335 334 334 333 332 331 331 329
309 309 309 309 309 309 309 308 307 307 308 309 309 310 310 311 313 314 312 312 311 310 310 311 311 310 309 312 317 319 319 319 319 320 320 320 322 323 326 333 337 340 340 339 338 338 338 339 339 340 340 340 341 341 340 336 335 337 336 335 335 335 336 336 336 335 335 335 335 335 336 335 335 336 336 336 335 335 335 334 333 333 332 331 330 329
309 310 310 309 309 309 309 308 308 308 307 309 310 311 311 310 313 314 312 311 311 310 310 311 311 310 309 313 317 317 318 320 320 320 320 321 326 329 330 334 338 340 339 338 338 337 338 339 340 341 340 340 341 341 339 335 336 337 337 336 335 334 336 335 335 335 335 334 334 335 336 336 336 336 335 336 335 334 334 334 333 332 332 331 330 328
309 310 309 309 310 309 309 309 309 309 308 309 309 309 310 311 311 311 312 312 311 311 311 311 311 311 312 317 319 318 318 319 319 320 321 324 328 332 334 335 338 339 338 338 338 338 338 339 340 340 340 341 341 340 338 336 336 336 336 337 335 333 335 335 334 335 335 334 334 336 336 335 336 336 335 335 335 334 333 333 333 332 331 330 329 327
309 310 309 309 310 309 309 309 309 309 309 309 309 308 310 312 312 311 312 313 311 312 313 311 310 312 313 316 317 317 318 318 320 321 322 325 329 333 334 336 338 339 338 338 339 338 339 339 340 340 341 341 340 340 339 336 336 336 337 337 335 334 335 335 335 335 335 335 335 335 335 335 335 335 335 335 334 333 333 333 333 332 331 330 328 327
310 310 309 309 310 310 310 310 309 309 310 309 308 309 311 312 313 311 311 312 312 312 313 311 311 310 309 312 316 317 317 318 320 322 324 329 333 334 335 337 339 339 339 339 339 339 339 339 340 340 341 340 340 340 339 336 336 337 337 336 335 335 336 336 335 335 335 335 335 334 335 335 334 335 335 334 334 334 333 332 332 331 330 329 327 326
310 310 309 309 310 310 310 310 309 309 310 310 310 310 312 311 312 311 311 313 312 312 313 312 311 309 307 312 317 318 318 318 321 325 329 332 335 336 336 339 340 340 340 340 339 339 339 339 340 340 340 340 340 340 339 336 336 337 337 335 335 336 336 336 335 335 335 335 335 335 335 334 334 335 334 333 333 333 332 332 332 331 330 328 326 325
310 310 310 309 309 310 310 310 310 309 309 310 310 310 310 311 311 311 311 312 311 310 311 312 311 309 309 313 317 319 320 318 321 329 331 332 336 337 339 341 341 340 341 339 338 338 338 338 339 340 340 340 340 340 339 336 335 337 337 336 335 335 335 335 335 335 336 335 335 335 334 334 335 335 333 333 333 332 332 332 331 330 329 327 326 325
310 311 311 310 310 310 311 311 311 310 309 309 310 309 309 310 310 311 311 310 309 310 310 312 312 310 311 316 318 319 321 321 324 330 331 332 337 339 341 342 341 341 341 339 338 338 337 338 340 340 340 340 340 340 339 336 335 336 337 337 336 335 335 335 334 334 335 335 335 335 335 335 335 334 333 333 332 332 332 331 331 330 328 327 326 325
310 311 311 310 310 310 311 311 311 311 310 309 309 309 309 310 310 311 311 310 309 309 309 311 310 310 314 317 316 317 321 323 325 328 331 337 339 340 343 342 341 341 340 338 337 337 337 338 340 340 340 340 340 340 340 336 333 333 335 336 335 334 335 335 334 335 335 335 335 335 336 336 335 333 332 332 332 332 331 331 330 329 328 327 325 324
310 311 311 310 310 310 311 311 311 312 310 309 310 310 310 311 310 310 312 311 310 310 311 310 308 311 322 325 322 325 327 326 327 327 332 339 341 342 343 341 340 340 339 338 337 337 337 339 340 340 339 340 340 340 339 334 331 331 333 334 334 334 335 334 334 335 336 336 336 336 336 335 334 333 333 332 332 331 331 331 329 328 328 327 325 324
310 311 311 310 310 310 310 311 311 312 311 310 310 310 310 310 310 311 312 312 311 310 310 310 308 312 325 331 330 331 328 327 332 333 334 340 341 342 342 340 339 339 338 338 337 337 338 339 340 339 339 339 339 340 338 334 331 332 334 335 335 335 335 334 334 335 335 335 335 336 335 334 333 333 333 332 332 331 331 329 328 328 328 327 325 324
310 311 311 311 311 311 311 311 311 311 311 311 311 311 311 310 311 312 312 312 312 310 310 310 308 311 323 330 331 330 328 330 336 337 338 341 341 341 341 339 339 338 338 337 337 337 338 339 339 339 339 339 339 340 338 334 333 334 335 337 336 336 335 334 334 335 335 335 335 335 334 333 333 332 332 332 331 331 330 328 327 327 327 326 325 324
310 312 311 311 311 311 311 312 312 312 312 311 312 311 311 311 311 311 311 311 311 311 310 309 309 312 322 328 330 332 333 336 340 340 340 341 341 340 340 339 339 338 338 337 337 338 339 338 338 338 339 338 338 339 339 336 335 337 337 337 336 336 335 334 334 335 335 335 334 334 334 333 332 332 332 332 331 330 329 327 327 326 325 325 325 323
310 312 312 312 312 312 312 312 311 312 312 312 311 311 311 311 311 312 311 310 310 311 311 311 312 314 318 322 326 330 335 339 341 341 340 341 340 339 339 339 338 337 337 337 338 338 339 338 337 337 339 338 338 339 339 337 337 338 337 337 336 335 334 334 334 334 334 334 333 333 332 332 332 332 332 332 331 330 328 327 326 325 324 324 323 323
311 312 313 313 312 311 311 311 311 311 311 311 311 311 311 311 311 313 311 310 312 311 309 312 315 315 316 319 322 328 334 338 340 340 340 340 339 338 338 337 337 337 337 337 338 338 338 339 338 338 339 339 339 339 339 338 338 338 337 336 336 335 334 334 334 333 333 333 333 332 331 330 331 332 332 331 331 329 328 326 325 324 323 323 322 322
312 312 313 314 313 311 311 311 311 311 311 311 312 312 311 311 312 312 312 313 313 311 311 317 319 317 318 319 323 328 333 337 340 340 339 339 338 337 337 337 336 337 337 337 338 338 338 338 338 339 339 340 339 339 339 338 338 338 337 336 336 335 334 334 334 333 332 332 333 332 330 330 331 332 331 331 330 329 327 326 324 323 322 322 322 322
312 313 313 314 314 313 312 311 311 311 311 311 311 311 311 311 312 313 314 316 316 314 317 322 321 320 320 320 324 330 333 336 340 339 338 338 337 337 337 336 336 337 336 337 338 338 338 338 338 339 340 340 339 339 339 339 338 338 336 335 335 334 334 333 333 333 332 332 332 331 331 331 331 331 330 330 329 328 326 325 324 323 322 321 321 321
312 312 314 314 314 314 313 312 312 311 311 311 311 311 311 311 312 313 314 316 317 315 319 322 319 319 322 325 329 332 333 337 339 338 338 339 337 337 337 337 337 337 337 336 337 338 338 337 337 338 339 340 340 339 339 339 338 337 336 335 335 334 334 333 333 333 332 332 332 331 331 330 329 329 329 328 327 326 325 325 323 322 321 320 320 320
313 312 314 315 314 314 314 313 312 312 312 312 312 311 312 312 312 313 314 315 316 315 316 317 315 317 325 330 332 334 335 336 338 338 339 339 338 337 337 338 338 337 337 336 337 337 337 337 337 337 338 339 340 339 339 339 338 337 335 335 334 334 333 332 332 332 332 332 331 330 330 329 328 328 327 326 325 325 325 324 323 321 321 320 319 319
313 312 314 314 314 316 315 312 312 313 312 312 313 312 313 313 313 314 314 314 317 317 315 314 315 322 328 328 328 334 337 337 339 339 338 339 339 338 337 338 337 337 337 337 337 337 337 337 337 338 339 340 339 339 339 338 338 337 336 335 334 333 333 332 331 332 332 331 330 330 330 328 327 327 325 325 325 324 324 322 321 320 320 320 319 319
313 313 313 314 315 316 315 313 314 314 313 315 317 315 314 314 314 314 314 315 317 318 315 316 318 323 326 323 323 332 338 338 338 339 338 338 339 339 338 338 337 337 337 337 337 336 336 337 338 339 339 339 339 339 339 338 337 337 336 335 334 334 334 333 331 331 331 330 330 330 328 326 326 326 324 324 324 323 322 321 320 320 320 319 319 319
313 313 314 315 315 314 314 315 314 314 316 320 322 318 315 315 314 315 316 316 317 316 316 317 318 319 322 324 324 330 337 338 337 337 338 337 338 339 339 338 337 337 337 337 337 336 336 338 339 339 338 339 339 339 338 337 337 337 336 335 335 335 335 334 332 331 330 330 330 328 325 324 325 325 324 323 322 321 321 320 320 319 318 319 319 319
313 314 314 315 314 314 315 314 313 317 321 323 321 318 317 317 316 316 316 315 315 316 316 317 317 317 322 326 328 332 336 336 335 336 337 337 337 339 339 339 338 338 337 337 337 336 337 338 339 339 338 338 338 339 338 336 335 334 335 335 335 335 335 334 333 332 330 329 328 326 324 324 324 323 323 322 321 320 320 320 319 319 318 318 318 318
313 315 315 316 314 314 313 313 316 320 322 321 319 317 317 319 318 316 315 315 316 316 316 317 317 319 323 328 331 335 336 336 337 337 336 336 336 337 338 339 338 338 338 337 337 337 337 337 338 339 338 337 337 338 338 336 334 333 333 333 334 334 334 333 332 331 330 329 328 325 324 325 323 321 321 322 322 321 320 319 318 318 318 317 317 316
314 315 316 317 316 314 312 314 317 318 318 321 322 321 323 324 322 319 315 314 315 316 317 318 318 320 325 330 333 336 337 338 340 339 337 336 336 336 337 337 337 338 339 338 337 337 337 337 337 338 338 337 337 336 336 336 335 334 334 334 334 334 333 332 331 330 329 329 327 325 324 325 324 322 321 322 322 321 319 318 318 318 318 317 316 316
315 314 315 316 316 315 314 314 315 317 320 325 327 325 325 325 324 320 314 312 316 320 320 318 318 322 327 330 334 339 339 337 335 337 337 336 336 336 336 336 337 338 339 337 336 337 337 337 337 337 337 337 337 336 335 335 335 334 334 333 333 333 332 332 332 330 328 327 325 324 323 323 324 324 323 321 321 319 317 317 318 318 317 316 315 315
316 315 315 316 316 316 316 313 315 320 325 328 328 326 324 324 323 317 311 313 323 326 323 320 321 325 329 332 336 340 338 333 333 337 339 336 335 337 337 337 337 337 337 337 336 336 337 337 337 337 337 337 337 336 335 335 335 334 333 332 331 331 331 331 331 329 328 326 324 324 323 321 322 324 323 321 319 317 316 316 317 317 316 314 314 314
317 315 315 316 316 316 316 314 317 324 327 328 328 324 323 323 320 313 312 320 328 330 326 325 326 328 331 334 337 338 335 331 331 334 337 336 336 336 337 338 338 337 336 336 336 336 336 336 336 337 336 336 336 335 334 335 335 334 333 332 331 330 330 329 328 327 327 325 323 322 321 320 322 323 322 321 319 317 315 316 317 317 316 314 313 312
317 315 314 315 315 316 315 315 319 324 326 327 326 322 321 321 316 315 323 328 329 330 330 329 329 330 332 336 338 336 332 330 331 334 336 337 336 336 336 336 336 335 335 335 335 335 336 336 336 336 336 336 336 335 335 334 334 334 333 332 331 329 329 328 327 326 326 325 323 322 321 320 320 320 319 319 319 316 316 316 316 316 316 314 312 312
315 315 314 315 317 317 315 316 320 325 326 327 324 319 320 322 322 325 331 331 328 330 331 330 330 330 331 335 337 334 331 331 334 337 336 336 336 335 334 334 334 334 335 335 335 335 335 336 336 336 336 335 335 334 334 334 334 333 332 331 330 328 327 327 327 326 325 323 322 321 320 318 318 317 316 316 316 316 317 316 314 313 313 312 311 310
317 317 316 316 317 318 317 321 325 327 326 327 326 324 325 328 328 328 331 331 330 330 330 330 331 329 330 335 335 332 331 332 334 336 335 335 335 334 333 334 334 335 335 334 334 334 334 335 335 334 334 334 333 333 334 334 332 329 328 328 327 326 325 325 325 325 323 321 320 319 318 317 316 315 315 314 314 316 316 314 312 311 311 310 309 308
321 320 320 321 321 322 324 326 327 326 325 325 326 327 327 327 326 326 328 330 330 329 328 330 330 329 330 334 334 332 331 331 333 334 334 334 334 334 333 334 334 334 334 333 333 333 333 333 333 332 331 331 331 332 333 333 329 325 324 324 324 324 324 323 323 323 322 320 319 317 315 315 314 314 314 313 313 315 315 312 310 309 309 308 308 308
320 320 321 324 325 326 327 326 325 325 324 324 324 324 325 325 325 325 327 329 329 328 327 328 328 329 331 333 334 332 329 329 331 332 333 333 333 333 333 333 333 333 333 332 332 332 332 331 330 329 329 329 329 330 331 331 328 326 324 323 323 324 324 323 322 322 320 319 317 315 314 314 313 313 312 311 311 313 312 310 309 308 308 307 307 306
319 319 322 325 326 326 328 327 325 324 323 323 323 324 324 325 325 325 326 328 328 327 327 327 329 330 332 333 332 330 328 328 330 332 332 332 332 332 331 332 332 332 332 331 330 330 330 330 328 327 327 326 327 328 328 328 327 326 324 323 323 323 323 322 321 320 319 317 315 314 314 313 312 312 311 310 310 310 309 309 309 308 308 307 306 305
320 320 323 325 325 326 327 326 323 322 322 321 322 323 323 324 325 325 326 327 328 328 328 328 330 331 332 332 330 329 328 329 329 330 331 330 331 331 330 330 331 331 330 330 330 330 330 329 328 327 326 325 325 325 325 325 324 323 323 322 322 321 321 321 320 319 318 316 314 314 313 313 312 311 309 309 309 308 308 308 308 308 308 308 307 306
319 320 322 324 325 326 326 324 323 324 324 322 321 321 321 322 324 326 326 327 328 328 328 328 329 330 330 330 328 327 328 328 328 329 329 329 329 329 329 329 330 330 329 329 330 330 330 329 329 327 325 323 322 322 322 322 322 322 322 322 321 321 320 319 318 318 318 316 314 314 313 312 310 310 309 309 308 307 307 308 308 308 308 308 308 308
321 322 323 324 325 326 326 325 325 326 326 324 322 321 321 322 324 326 326 327 328 329 329 329 329 329 329 329 328 327 326 327 327 327 327 328 328 328 329 329 329 329 329 329 329 329 329 328 328 325 322 321 321 321 321 321 321 321 321 321 321 321 319 317 318 318 317 315 314 313 312 311 310 309 309 309 308 307 307 307 308 307 307 308 308 309
321 323 323 324 325 326 326 325 325 325 325 323 322 322 322 323 325 325 324 323 324 326 328 329 329 328 328 328 329 328 327 326 326 326 326 326 327 328 328 329 329 329 328 328 328 328 327 327 326 324 321 320 320 320 319 319 320 320 320 320 320 320 318 317 317 317 316 315 313 312 311 310 309 309 310 310 310 308 307 306 306 306 307 308 308 309
Wind_Speed
12 11 13 14 15 19 19 19 18 10 10 16 17 14 13 11 12 15 12 14 18 16 16 19 17 19 21 18 15 12 13 14 14 14 12 11 11 10 10 10 9 8 7 9 12 13 15 16 16 15 16 17 18 18 19 19 18 18 18 18 18 18 19 18 18 19 18 17 16 16 15 14 13 12 11 10 9 9 8 7 7 6 6 6 5 4
13 13 15 17 17 18 18 19 17 11 10 15 15 13 13 12 11 14 14 13 16 13 12 17 18 18 19 17 16 14 13 14 14 14 13 13 12 10 11 11 10 7 7 9 11 12 14 16 16 16 16 17 18 19 19 19 19 20 19 18 19 19 20 20 19 19 18 17 16 15 15 14 14 13 12 10 10 9 8 7 6 6 7 7 5 5
15 15 16 18 16 16 18 19 17 13 13 13 12 11 11 11 10 11 14 13 13 10 10 16 16 15 17 17 15 16 14 13 14 14 13 13 13 11 11 11 9 8 8 10 10 12 14 15 17 17 17 18 18 18 20 20 20 21 20 20 20 21 22 21 20 19 18 17 15 14 15 15 15 14 12 11 10 9 8 7 6 7 7 7 6 5
13 14 16 17 15 16 18 20 19 12 12 11 11 11 10 12 12 8 12 15 13 10 9 12 13 12 14 14 13 14 14 13 13 14 12 12 12 11 11 9 9 10 10 11 12 12 13 15 18 19 19 19 18 19 21 21 22 22 22 22 22 22 22 21 21 19 18 17 16 14 15 16 15 12 11 11 10 9 8 7 7 7 8 7 6 5
14 13 15 17 15 17 18 20 19 12 9 12 12 12 10 14 15 8 11 14 12 11 10 9 9 10 12 13 12 11 12 13 12 13 12 11 11 10 10 9 9 10 9 10 12 12 13 15 18 20 20 20 20 20 21 23 23 22 23 22 22 22 21 20 20 19 18 17 16 16 16 15 13 11 11 12 11 10 9 8 8 8 7 6 6 5
15 12 15 19 16 17 18 17 19 14 9 11 14 14 12 14 14 9 12 14 10 10 12 11 9 8 12 15 14 13 13 13 11 12 13 12 12 11 10 10 10 9 9 9 11 12 13 14 17 20 20 21 21 21 22 24 23 22 23 23 22 22 21 20 19 19 19 18 17 19 17 16 15 14 14 14 13 12 10 10 10 8 8 7 6 5
12 12 14 19 19 19 18 15 19 18 10 9 12 13 12 13 14 12 14 14 8 8 13 15 11 7 11 15 15 15 15 16 13 12 15 13 12 12 11 11 11 10 9 9 10 11 13 14 16 19 21 22 22 21 23 25 24 23 23 24 22 21 20 20 20 21 21 18 17 18 18 17 16 16 15 14 13 13 12 11 11 10 9 8 6 5
12 15 15 19 19 17 15 13 18 20 11 8 14 14 11 13 15 14 13 12 8 6 10 16 14 8 8 12 15 17 16 18 16 14 15 14 13 14 13 12 10 9 10 9 10 12 13 15 17 19 21 23 22 20 22 25 25 23 23 22 20 19 19 19 20 22 22 19 18 19 18 16 16 15 14 13 13 13 13 12 12 11 9 8 6 5
14 16 17 19 18 14 13 13 18 22 13 7 16 16 11 12 14 13 11 10 8 5 7 14 15 10 7 7 12 16 16 17 18 18 18 17 16 15 14 13 11 10 10 10 11 12 13 15 17 20 21 22 22 21 23 26 23 22 22 19 17 16 17 19 20 22 23 23 22 20 18 17 16 15 14 14 14 13 14 14 14 12 11 9 7 6
12 14 15 18 14 11 14 14 19 22 12 9 16 15 11 10 11 11 10 9 7 6 9 14 16 11 7 7 10 12 15 16 17 18 18 18 16 15 14 14 13 11 10 10 11 11 13 15 18 20 20 21 22 19 21 23 20 24 23 19 19 18 17 19 21 23 25 26 25 20 16 16 17 16 15 15 15 15 16 16 15 14 12 10 8 7
11 14 13 14 12 11 14 14 18 22 13 12 15 12 10 9 8 8 7 7 7 8 11 15 18 14 9 8 10 10 13 16 15 15 16 17 17 16 15 14 13 11 10 10 11 11 13 16 18 19 20 21 20 18 18 17 23 31 26 22 24 22 19 20 21 24 27 27 23 18 15 16 16 16 15 16 16 17 18 18 17 16 14 11 9 8
11 15 12 12 12 13 14 13 16 20 14 12 13 11 10 8 6 7 6 6 7 8 12 14 17 16 11 7 9 12 16 16 13 14 15 17 17 16 14 13 12 12 11 11 11 11 12 14 16 19 21 21 19 18 17 19 28 30 29 29 28 25 23 24 23 24 27 24 19 17 15 15 16 16 17 18 19 19 19 19 18 17 15 12 10 9
10 14 14 13 14 14 15 13 14 17 14 12 12 11 11 9 7 8 9 8 8 7 8 13 14 13 11 7 5 10 15 16 14 13 14 16 17 17 15 14 12 12 12 12 11 11 11 12 14 18 21 19 18 18 18 25 26 25 29 30 28 26 25 25 22 23 24 21 19 20 18 16 16 16 18 18 19 20 19 19 19 17 15 13 11 10
9 13 17 16 13 14 16 12 12 14 14 14 13 12 11 10 9 10 9 8 9 6 5 10 12 9 9 8 8 10 11 13 14 13 12 12 12 14 15 13 12 12 13 12 12 12 12 12 14 17 19 17 17 18 20 27 25 24 27 28 27 27 26 24 24 26 26 22 20 20 20 19 18 17 18 18 18 20 19 18 18 16 14 13 12 12
10 11 16 17 13 15 17 14 13 14 14 14 13 11 10 8 7 8 8 8 10 8 7 9 9 7 7 5 7 11 9 8 10 10 10 8 5 7 10 11 12 12 13 12 12 13 13 13 15 16 16 16 17 19 24 27 24 24 26 27 28 28 26 25 26 28 28 25 23 22 21 21 20 19 19 17 17 19 18 17 17 15 13 13 12 13
12 10 15 17 13 17 17 14 15 14 12 12 11 11 10 7 5 4 2 3 6 7 8 9 6 5 5 2 3 7 8 9 9 9 9 8 7 8 9 11 12 12 13 13 13 14 14 14 16 17 17 16 17 20 25 27 26 28 28 27 29 29 27 28 29 28 26 27 30 29 26 23 21 20 19 17 17 19 18 17 17 15 13 13 13 13
10 9 16 18 14 18 18 14 16 14 9 10 11 12 11 7 4 4 3 4 3 6 6 8 7 5 4 4 7 9 9 9 10 10 10 9 10 11 10 11 12 12 13 13 13 13 14 14 16 18 17 16 19 21 26 27 27 29 29 27 30 31 31 31 31 28 25 27 30 32 29 25 24 21 18 18 18 18 18 17 16 15 14 13 13 13
9 8 16 19 15 18 18 13 15 15 9 8 10 11 9 4 3 5 5 5 6 7 5 8 10 9 6 5 8 13 13 11 11 12 11 10 11 12 11 11 12 13 13 13 13 12 13 14 15 17 15 16 20 22 28 30 28 28 29 30 33 35 32 31 31 26 25 27 27 27 27 26 25 21 17 18 20 19 18 17 16 15 14 13 13 13
10 7 13 17 15 17 17 12 12 14 11 8 9 9 8 6 5 6 6 6 9 7 5 8 10 10 9 5 7 11 14 14 13 12 11 12 12 12 11 12 13 13 12 12 12 12 12 13 14 17 16 17 22 24 29 34 32 27 29 30 32 32 28 28 29 24 22 24 22 23 25 24 22 19 16 19 20 19 19 18 17 16 14 14 13 14
9 5 10 16 16 16 14 10 10 12 10 9 9 9 7 7 7 7 5 4 7 7 5 7 8 8 9 8 7 9 12 14 14 12 11 12 13 11 11 12 12 13 11 11 11 11 11 12 15 18 18 19 23 25 28 35 34 27 27 28 26 26 24 25 26 23 22 23 22 23 24 22 21 17 16 19 20 19 19 19 17 16 15 14 14 15
8 5 9 14 16 15 12 10 11 12 11 9 10 10 9 7 6 7 6 4 5 6 6 6 6 6 7 8 9 7 8 11 12 10 10 10 11 11 11 11 11 11 10 10 10 11 11 13 15 17 18 19 23 25 28 32 31 25 26 27 23 24 26 25 26 24 23 23 23 24 23 21 21 19 18 21 21 20 21 19 18 17 15 15 15 16
6 6 10 13 14 13 12 12 12 13 13 10 8 10 10 8 7 8 7 6 5 4 5 5 5 4 5 7 10 9 5 6 7 7 7 8 10 11 10 11 11 10 11 11 11 11 11 12 14 17 18 19 22 24 25 29 29 26 25 25 23 24 26 27 27 24 22 22 23 23 22 21 22 21 20 21 21 22 22 20 18 18 16 15 15 16
3 4 10 12 11 12 14 14 12 13 15 12 9 9 10 9 8 7 6 7 6 3 1 3 3 2 4 3 5 5 2 3 3 4 5 7 10 11 11 11 11 10 11 11 11 12 11 12 15 17 18 19 21 22 23 28 30 29 24 23 24 24 24 24 25 23 21 22 21 21 22 22 21 21 21 22 22 23 22 20 20 19 17 16 16 16
2 3 9 10 10 11 13 14 11 12 14 12 10 10 10 10 10 8 5 6 7 5 3 3 4 3 5 4 3 3 3 2 2 2 5 7 9 10 12 13 12 11 12 12 12 11 11 12 14 15 16 18 20 20 22 28 29 27 22 23 24 24 23 22 22 22 22 22 20 21 23 22 20 20 22 23 23 22 22 22 21 20 18 18 16 16
4 6 9 10 11 11 10 11 11 12 12 10 10 11 12 13 13 10 6 4 6 7 5 4 4 4 5 4 5 5 4 4 3 4 5 7 9 10 11 12 12 12 12 12 12 12 12 13 13 13 16 17 18 20 22 27 28 26 24 25 23 24 24 23 22 23 23 22 22 23 24 22 20 23 25 24 23 23 23 23 21 19 19 19 17 17
5 6 9 10 11 11 11 11 12 12 11 10 12 15 15 16 16 11 7 6 7 6 5 4 3 7 7 6 6 6 5 5 6 6 6 7 9 10 10 11 11 11 11 13 13 13 13 13 12 13 16 17 18 19 21 25 28 27 26 24 22 23 25 24 24 24 23 23 22 23 23 22 21 24 26 24 23 23 24 24 22 20 19 19 18 18
4 6 9 10 10 10 9 9 11 13 13 12 16 18 17 17 17 11 7 7 7 5 5 7 3 4 6 7 6 5 4 5 6 7 7 7 9 10 10 10 10 10 11 12 12 12 13 13 13 14 16 17 18 19 20 23 25 26 26 25 23 23 24 24 24 25 24 23 20 18 20 20 20 23 24 22 22 23 24 25 24 21 20 20 20 19
5 7 7 8 11 11 7 6 10 14 15 15 17 18 17 17 17 13 9 8 8 6 7 9 7 3 3 4 5 4 3 4 5 7 8 8 8 9 9 10 11 11 11 12 13 13 14 13 13 13 15 16 17 18 19 21 23 25 27 27 24 23 22 22 22 24 25 22 19 18 20 20 21 23 22 20 22 23 24 26 24 21 21 21 20 19
5 7 6 6 11 11 7 7 11 15 15 15 16 17 18 18 17 16 12 9 9 9 5 3 4 6 4 1 5 6 4 2 5 6 7 8 9 9 10 11 12 12 13 13 13 14 14 13 13 13 14 16 18 19 19 20 22 25 26 25 24 23 21 19 20 21 22 20 18 18 20 21 22 23 21 21 23 23 24 26 25 24 23 21 19 19
4 5 5 5 9 9 6 7 12 15 15 15 16 17 18 18 16 16 14 9 9 10 4 3 3 6 5 3 4 5 3 3 5 6 7 9 10 10 11 12 12 12 13 13 13 13 13 13 13 12 13 16 18 20 20 19 21 23 23 23 22 22 21 20 19 19 19 19 18 17 20 22 23 23 23 23 23 24 28 30 28 26 25 23 21 19
4 3 4 3 6 9 9 7 10 15 16 15 16 17 18 18 16 16 16 10 8 11 8 5 7 6 1 2 3 3 3 4 6 7 8 9 10 11 11 12 12 12 12 13 13 13 13 13 13 12 13 16 18 20 20 20 20 20 21 21 22 21 21 20 19 18 19 21 19 18 21 23 22 23 24 24 25 28 31 31 29 27 25 24 24 21
5 3 4 4 5 9 12 10 10 14 16 15 16 18 19 19 16 15 15 12 11 11 10 9 8 4 3 4 3 4 4 4 6 8 7 8 10 11 11 11 12 12 12 13 13 13 13 14 14 13 14 17 18 19 20 20 21 21 21 21 21 22 21 20 19 18 19 21 22 21 22 21 21 22 23 24 27 30 32 31 29 28 26 25 26 24
4 3 3 4 4 8 13 14 11 11 13 12 14 18 19 17 15 15 15 15 15 12 9 8 6 1 4 2 1 2 4 4 5 7 7 7 9 11 11 11 11 11 12 13 13 13 14 13 13 14 16 17 18 19 20 20 20 20 21 22 22 22 22 20 19 19 19 21 23 23 22 20 21 22 21 25 30 32 32 30 27 26 26 26 27 26
2 2 2 2 2 7 14 14 10 10 10 6 6 13 19 18 16 16 15 15 16 12 10 10 6 4 5 5 5 3 0 2 2 4 6 6 7 9 10 10 11 11 12 12 12 13 12 11 12 15 16 16 16 18 18 18 18 19 20 22 22 22 21 20 19 19 19 20 22 22 21 22 26 26 25 28 32 32 30 27 24 23 24 25 28 27
2 1 1 2 2 6 12 12 9 9 6 2 2 6 13 16 17 17 16 17 17 15 15 15 11 8 7 7 6 5 3 1 1 3 6 6 6 7 9 10 10 11 12 11 12 12 11 11 12 14 16 16 16 17 17 16 18 19 20 22 22 21 21 21 20 20 20 21 22 21 21 24 27 29 31 32 32 32 29 24 21 20 21 24 28 27
3 2 1 2 2 5 9 10 7 5 5 6 4 4 6 9 13 14 14 17 17 16 16 15 12 9 7 6 5 4 2 1 1 3 6 7 7 7 7 8 10 11 11 11 11 12 12 12 13 14 15 15 17 19 18 17 18 19 20 21 22 21 20 20 20 21 21 21 20 20 24 28 27 28 33 34 32 32 29 23 21 22 23 25 26 24
4 3 3 1 1 4 8 9 5 4 6 5 5 5 5 7 10 11 10 11 14 16 14 12 11 10 6 5 4 3 1 2 3 4 7 8 8 7 7 7 9 9 10 11 12 12 13 13 14 15 15 16 17 18 17 18 19 19 19 20 20 20 19 19 20 20 20 21 20 21 28 33 31 30 33 35 35 32 27 22 22 24 25 24 21 19
3 3 4 2 1 3 7 8 6 6 7 5 6 7 4 2 5 8 8 9 12 15 13 11 11 10 6 4 4 2 2 4 4 5 8 9 9 8 7 8 9 9 10 11 12 13 13 13 14 15 15 16 16 16 15 16 17 17 18 18 18 18 17 18 19 19 20 21 21 23 30 35 35 34 34 36 36 31 24 21 23 25 24 23 21 20
5 4 5 4 3 4 6 8 7 5 3 4 7 7 5 3 5 7 7 8 9 11 11 11 11 9 6 5 5 4 5 5 3 5 8 11 10 9 9 9 10 10 11 12 12 13 14 14 14 14 15 15 15 15 15 16 15 14 14 14 15 15 16 17 19 21 22 22 22 27 32 34 36 38 37 37 35 29 23 24 26 27 25 23 22 21
6 4 4 5 4 5 5 6 6 3 3 5 6 5 5 5 7 9 9 7 5 6 7 9 10 8 6 5 5 4 4 1 3 5 7 11 11 9 9 9 11 11 11 12 12 12 13 14 14 14 14 14 14 14 15 16 15 15 14 13 13 14 15 17 17 18 20 21 25 31 34 33 38 42 40 37 34 28 24 26 27 28 27 25 22 22
6 5 4 5 5 5 5 5 5 4 3 4 4 4 5 6 8 9 8 3 4 3 4 5 6 6 5 6 5 2 1 3 3 2 6 10 12 10 9 10 12 13 13 13 13 12 13 13 13 13 13 13 14 14 15 16 14 14 14 15 15 15 15 15 15 16 18 19 24 29 30 33 39 41 38 38 35 29 27 27 27 28 29 27 25 24
4 4 4 4 5 5 5 5 5 4 3 3 3 4 5 6 7 5 2 2 2 1 2 2 4 4 5 6 4 1 4 5 2 3 8 10 11 12 10 11 13 13 14 14 13 12 13 13 12 11 12 13 14 13 14 15 15 14 15 15 15 17 18 18 18 19 19 19 22 24 25 30 36 34 32 34 34 30 29 27 27 28 30 29 28 26
1 3 5 5 3 4 7 6 4 4 3 3 2 4 3 3 2 2 2 2 1 1 1 2 3 4 5 6 4 3 4 5 5 8 11 10 11 13 12 12 13 14 14 14 13 12 12 12 11 11 11 12 11 11 13 14 13 12 12 13 15 17 17 17 20 21 19 20 22 21 22 29 32 28 27 30 31 30 29 27 26 27 29 28 27 25
2 2 4 4 1 3 6 5 1 3 3 3 1 2 1 2 3 4 2 2 2 2 0 1 2 3 5 6 5 4 4 5 7 9 12 12 12 13 12 12 13 14 14 14 14 13 12 12 12 11 10 9 8 9 12 13 11 10 11 11 13 15 13 13 17 19 19 20 21 20 22 28 30 28 26 27 29 29 28 27 27 28 27 25 24 23
3 2 1 2 3 1 3 4 2 3 3 2 3 3 4 5 4 3 3 2 2 2 2 1 1 4 5 5 5 6 5 6 8 9 11 12 12 12 13 13 14 14 15 15 14 13 12 13 13 11 9 7 7 8 10 10 12 14 14 13 14 14 13 13 15 16 16 17 18 19 22 26 28 28 25 25 27 29 28 28 28 27 25 22 21 21
2 2 3 1 3 5 6 6 5 4 5 4 4 4 4 5 5 4 4 3 3 3 2 2 1 4 6 4 5 7 7 8 9 10 10 11 12 12 13 13 14 15 16 15 15 14 14 14 13 11 9 6 5 7 7 7 11 14 13 12 13 13 13 13 14 15 15 15 16 18 22 25 26 26 24 24 25 26 26 27 27 26 25 23 21 21
1 2 3 1 3 4 5 6 6 6 6 6 5 4 5 6 7 6 5 4 4 4 3 2 4 6 7 5 7 8 10 10 11 11 11 11 12 12 12 13 13 15 16 16 15 14 14 14 12 11 10 7 5 5 5 7 9 11 11 11 12 12 12 13 14 15 14 15 15 17 20 23 25 24 22 22 23 21 21 25 26 26 25 23 21 19
2 4 1 2 3 3 6 6 6 6 6 6 6 5 5 6 8 7 6 6 5 6 6 6 6 7 7 8 9 10 11 11 11 12 11 11 11 11 12 12 13 15 16 16 15 14 14 14 12 11 11 8 6 4 5 7 8 10 11 12 12 12 12 12 13 14 15 15 15 16 20 24 25 24 21 20 20 20 21 25 26 25 25 24 23 22
3 5 1 3 5 6 7 4 4 6 5 5 6 6 6 5 7 7 7 8 9 9 9 9 9 9 9 9 10 12 12 11 11 12 12 11 11 11 12 13 15 16 16 15 14 14 14 13 12 11 11 10 8 5 4 5 7 9 10 12 13 14 14 13 13 14 15 15 15 18 23 24 22 20 20 18 17 18 21 24 24 23 24 26 28 28
1 1 1 4 6 6 6 4 3 5 5 4 5 6 5 5 6 8 9 9 10 11 11 11 11 11 11 12 12 13 14 13 11 12 12 11 11 11 13 14 15 15 15 14 14 14 13 13 12 12 12 11 10 8 5 5 6 7 9 11 13 14 14 14 14 14 15 14 14 19 25 24 19 18 18 16 15 16 19 21 23 22 22 24 27 29
1 0 0 2 3 5 6 5 3 3 5 4 3 4 5 6 7 10 10 10 10 10 10 11 11 11 12 12 11 13 15 14 13 12 12 11 12 13 14 14 15 15 14 14 14 14 13 12 11 12 12 11 11 10 7 6 7 7 8 10 11 13 14 15 15 15 14 13 14 21 25 22 18 17 16 14 14 15 15 16 18 20 21 23 26 27
Wind_Direction
196 197 203 206 205 201 200 205 208 215 215 193 184 189 190 192 198 202 195 176 185 196 203 207 212 219 226 220 206 192 193 207 214 213 215 213 209 207 206 210 206 194 174 166 169 174 184 191 190 190 194 194 194 193 191 189 187 183 178 174 175 176 176 178 182 185 184 181 177 173 169 171 177 180 179 183 191 190 187 186 185 190 188 171 159 153
200 209 211 207 207 202 198 205 206 210 209 185 181 188 191 203 201 196 195 175 185 204 202 204 214 219 223 221 207 197 195 202 212 213 213 213 211 211 213 214 208 185 161 166 167 169 181 189 190 191 195 197 194 191 189 188 188 184 180 177 176 176 177 180 184 184 183 182 179 175 173 174 178 181 178 182 189 184 182 187 185 187 180 164 156 151
203 215 212 202 205 204 195 200 200 197 193 180 185 193 192 203 197 186 189 178 182 204 204 199 211 221 221 220 208 200 201 203 209 215 215 213 212 213 215 215 206 182 170 173 167 171 184 189 191 193 197 200 197 191 188 187 186 184 183 181 178 178 179 181 184 183 180 177 174 172 173 174 178 182 180 180 182 179 179 184 185 184 171 157 154 151
203 211 208 198 199 203 194 191 193 192 192 192 190 191 194 193 189 185 186 184 185 203 215 200 207 224 218 215 208 198 203 209 212 218 221 220 218 217 215 212 203 193 186 177 174 179 188 191 194 196 198 200 197 192 189 186 183 183 184 183 180 180 180 180 180 180 175 170 169 172 173 174 176 177 173 171 174 176 177 180 183 178 162 154 155 148
207 200 196 194 190 192 187 185 191 195 195 201 199 197 198 187 192 200 179 178 186 203 224 207 203 223 209 199 199 197 206 213 213 215 220 222 224 224 219 215 207 201 195 185 181 180 186 196 199 199 199 198 198 194 190 185 181 183 184 182 179 179 180 177 173 174 171 166 168 171 171 171 170 168 167 173 176 174 172 175 177 169 157 155 154 144
211 197 190 192 189 189 189 186 192 197 194 198 202 205 200 182 190 193 165 170 185 198 210 208 209 218 203 200 202 197 200 207 207 209 215 219 220 223 222 220 214 203 198 192 187 183 186 198 202 201 200 200 200 196 190 186 183 183 181 177 175 175 174 169 167 168 164 164 170 169 168 171 169 167 174 179 178 172 170 172 168 160 159 160 152 143
207 193 191 194 192 193 195 193 192 194 197 193 192 202 202 182 182 178 166 176 198 197 194 203 220 222 198 204 205 194 193 200 202 205 214 219 218 220 221 221 217 205 196 190 190 191 189 195 204 205 202 203 203 196 191 189 187 183 177 170 170 170 168 165 165 167 163 163 172 174 176 179 174 169 177 182 177 170 166 165 165 162 161 159 150 143
198 187 193 197 194 191 194 195 188 192 206 190 176 187 194 185 186 182 179 193 206 185 178 196 218 237 211 201 195 189 191 199 200 204 214 218 218 218 219 220 217 205 195 186 190 196 192 197 207 208 205 206 203 195 191 192 189 178 167 163 166 168 168 167 166 171 175 175 179 186 186 182 174 169 173 175 168 163 160 162 167 164 158 156 151 143
194 191 194 196 193 188 192 191 181 191 209 171 163 180 189 190 193 189 192 208 202 179 185 195 207 232 225 181 175 183 193 201 202 206 213 214 215 217 218 217 213 204 195 189 192 195 193 199 209 211 210 207 204 197 191 193 187 164 153 155 165 175 175 171 169 175 184 186 187 192 188 177 172 167 167 165 158 161 166 167 169 164 158 157 153 143
188 200 197 194 193 186 190 185 177 191 202 147 153 170 175 182 189 192 204 210 199 206 214 194 192 217 224 178 172 183 196 204 204 207 211 211 211 211 212 212 207 200 193 192 194 195 196 201 209 215 214 210 208 199 192 191 169 145 146 155 169 184 180 173 175 178 187 193 191 192 186 174 167 163 166 163 159 168 174 169 167 164 160 157 150 141
184 203 202 196 196 185 183 178 177 191 187 146 157 163 159 171 179 190 213 213 205 218 219 198 190 208 226 198 184 188 201 205 205 206 206 206 207 207 208 208 202 195 190 192 193 195 198 200 209 217 216 212 205 196 193 176 139 138 154 171 179 184 179 178 182 180 187 196 194 190 185 171 161 161 169 171 170 176 176 170 168 165 161 157 150 143
187 196 193 196 202 188 175 167 175 191 186 160 169 168 159 168 174 183 202 212 218 219 214 203 194 204 225 210 182 191 205 206 206 206 201 202 206 206 207 204 199 193 190 191 192 195 198 199 209 215 215 212 198 191 183 145 131 147 170 185 187 181 179 184 186 182 186 193 192 191 190 178 168 166 173 181 182 180 176 173 170 163 158 155 149 145
187 189 182 188 200 191 175 165 172 187 191 183 181 175 170 168 171 188 194 200 215 219 204 195 190 204 225 224 187 195 204 204 205 209 205 204 207 207 206 199 193 191 190 190 189 192 194 198 209 211 212 208 190 186 167 141 147 167 176 183 182 176 179 182 183 186 188 191 193 193 192 189 187 179 177 186 188 182 178 174 172 165 157 153 151 149
175 184 184 183 189 192 187 176 172 181 189 193 188 180 182 174 173 190 190 192 205 201 180 185 191 209 225 227 222 213 204 198 202 210 214 214 210 208 204 193 185 187 189 190 188 191 194 199 209 210 210 202 184 177 157 148 162 170 170 175 173 173 180 175 180 193 193 193 197 194 192 194 196 189 184 188 188 184 180 174 173 168 155 151 152 152
171 178 184 184 178 187 196 189 177 177 183 194 195 193 197 185 179 191 187 191 196 179 162 178 194 211 207 199 210 214 210 196 195 200 207 210 201 194 190 182 183 185 189 191 191 193 195 200 207 209 205 192 179 168 152 151 159 159 165 171 166 174 182 173 181 195 193 191 191 190 191 193 194 193 192 191 188 186 182 173 171 165 153 149 151 152
180 176 178 186 180 181 194 192 179 178 179 190 199 202 209 200 180 177 170 181 184 174 169 179 198 212 198 158 167 198 205 201 199 196 199 201 188 183 183 181 184 187 190 192 193 195 195 198 202 204 200 183 171 162 151 151 155 156 165 167 161 172 180 178 185 192 188 186 187 188 189 189 191 191 191 191 189 187 180 171 166 160 152 149 149 150
184 170 170 184 185 181 194 191 183 187 178 180 198 202 204 209 188 161 103 70 144 183 177 182 200 200 208 232 205 194 197 197 200 201 205 203 189 187 191 187 185 188 191 191 191 193 192 194 198 200 196 176 166 160 151 152 159 163 166 161 158 167 176 181 185 186 184 183 185 188 187 188 192 190 188 188 187 183 175 168 165 157 152 150 148 147
178 154 164 182 182 183 195 189 188 204 193 178 194 189 181 197 210 186 165 139 177 199 172 175 201 205 209 215 191 195 204 201 198 197 195 190 186 192 194 189 186 186 189 188 188 191 191 193 197 195 188 171 167 160 152 158 168 166 161 159 164 171 175 180 184 184 183 181 183 184 183 189 195 191 188 188 185 177 167 166 166 157 152 151 147 145
178 151 162 183 181 177 189 187 191 208 211 206 194 171 169 185 189 190 186 173 186 203 190 183 200 210 211 198 172 190 202 202 197 189 184 186 189 194 190 185 185 183 183 185 184 189 191 192 193 189 181 171 168 159 154 165 173 166 161 167 175 176 173 175 180 182 181 181 183 181 180 188 190 185 186 186 183 175 167 167 166 159 153 149 147 148
183 165 161 182 181 172 182 193 194 194 198 216 202 180 195 207 194 191 192 184 188 200 206 191 193 205 211 209 196 188 192 198 196 186 191 198 191 188 184 180 182 180 179 182 184 188 190 189 190 186 178 171 167 157 156 168 173 168 169 174 177 178 173 171 174 176 177 181 182 180 182 187 184 181 183 182 179 174 170 169 165 159 154 148 148 151
180 171 158 173 177 176 185 197 197 184 179 200 198 185 195 199 196 195 196 212 206 201 203 194 198 208 201 206 216 205 184 186 188 184 196 200 183 177 177 175 177 176 175 179 183 187 189 188 186 182 177 171 164 156 157 166 170 170 175 177 176 178 175 170 171 172 174 178 178 178 183 186 183 180 180 179 177 174 172 170 164 159 154 149 150 154
184 171 162 168 175 184 188 188 196 190 183 195 196 187 190 188 190 190 186 205 220 216 208 202 214 211 172 185 211 216 193 165 172 183 187 180 172 169 167 170 171 170 174 179 182 186 187 185 180 176 176 170 163 161 157 157 167 178 178 174 175 178 175 170 170 170 170 173 176 179 182 182 179 178 176 174 174 174 172 169 165 160 153 151 153 156
208 179 168 167 174 186 182 182 201 197 185 196 207 195 193 192 197 196 177 183 197 210 199 192 209 174 109 131 191 189 152 140 164 193 181 164 164 162 158 163 168 170 176 177 180 185 183 179 174 170 172 167 163 168 155 148 168 186 180 170 172 174 172 171 170 169 169 173 178 182 183 178 176 176 173 169 172 175 172 168 165 161 155 153 156 159
215 194 167 161 166 178 177 179 202 203 187 196 209 201 197 194 199 209 187 166 180 188 168 170 197 156 90 84 116 112 117 153 159 184 172 153 153 160 159 163 169 171 175 176 179 182 175 173 171 166 171 168 165 170 156 149 170 186 176 171 174 171 171 171 170 172 172 175 181 183 182 177 174 174 171 169 172 175 174 171 168 162 156 153 156 161
197 187 165 160 161 165 171 177 193 201 195 198 201 197 197 193 194 206 203 174 183 191 185 190 185 139 97 104 117 120 146 159 136 142 154 148 152 161 160 164 168 168 172 176 177 177 172 171 171 168 173 172 168 172 161 155 169 177 172 175 174 169 171 170 170 176 176 177 182 182 180 176 172 173 172 170 172 175 176 173 167 161 157 154 157 163
194 188 170 171 168 166 176 183 185 189 191 195 195 192 193 194 193 196 196 190 189 182 189 219 163 109 114 129 121 126 149 145 130 134 143 147 154 160 162 165 167 167 171 174 174 175 173 173 174 172 174 173 172 174 166 161 167 170 172 177 171 166 170 169 171 176 174 174 179 180 178 174 170 172 172 171 171 174 175 172 167 163 158 156 159 162
196 198 189 188 188 181 179 182 181 183 186 191 192 190 192 195 195 195 195 198 192 170 186 226 244 86 123 134 113 117 143 134 131 140 147 150 153 160 164 163 165 169 172 172 173 174 173 174 176 174 174 175 173 172 170 166 166 167 170 174 168 163 167 169 172 175 173 173 174 173 173 172 171 172 171 170 172 173 174 174 171 164 159 160 162 162
199 192 191 206 207 191 166 162 178 184 188 191 190 190 190 193 195 198 204 202 195 194 201 214 235 247 171 124 88 83 105 123 141 151 154 156 156 160 163 162 166 170 171 172 174 175 176 176 176 175 177 178 174 173 171 165 163 164 165 166 164 162 164 166 172 175 175 173 168 166 170 173 174 173 169 170 174 173 173 175 172 166 164 167 168 165
207 182 172 214 213 192 161 159 174 179 185 188 188 189 190 192 194 198 205 205 198 204 202 182 224 238 241 359 49 60 64 113 150 153 155 158 159 162 163 165 170 171 171 173 174 175 177 176 175 176 177 177 175 173 169 162 159 160 159 159 160 162 163 165 170 174 175 173 168 168 172 175 175 173 170 172 174 172 174 175 175 174 173 172 170 168
220 176 158 213 212 197 185 174 174 177 181 185 187 187 189 193 195 197 204 208 211 220 238 14 320 274 277 321 24 55 64 112 135 144 158 162 162 164 165 167 171 172 172 173 172 175 178 176 176 176 175 175 175 172 167 161 158 158 156 155 158 161 163 167 172 175 178 178 173 170 172 174 174 172 170 171 172 174 177 179 179 179 178 176 173 169
218 163 150 225 213 194 193 185 182 185 183 184 188 187 188 191 192 198 205 207 219 234 249 287 289 278 269 60 58 77 104 140 148 156 167 168 164 166 170 171 173 172 172 173 172 174 176 177 176 177 176 177 177 173 167 162 161 160 157 156 160 163 165 168 174 181 184 183 177 171 172 175 175 173 170 170 173 177 180 181 182 181 179 179 179 173
210 179 166 223 216 185 182 183 186 187 186 189 193 190 190 191 191 197 203 206 215 228 238 251 260 255 113 100 103 130 147 168 172 169 173 174 168 170 176 175 173 172 172 174 174 173 176 178 179 179 179 179 180 180 172 163 161 159 157 158 160 162 165 168 175 184 186 183 179 174 174 176 174 173 171 173 176 178 180 183 183 182 180 181 182 177
195 197 182 216 209 169 174 182 180 179 188 197 197 192 190 190 192 197 201 207 217 224 230 235 243 29 65 55 20 139 163 195 195 178 178 180 174 174 177 175 174 173 173 174 175 175 177 179 182 182 179 177 181 185 180 172 168 163 160 160 159 163 168 170 175 183 184 181 179 176 176 175 170 167 169 174 178 179 180 181 180 182 184 184 186 183
198 208 179 217 210 163 169 177 177 183 193 195 186 191 193 192 193 194 198 208 215 222 233 241 260 331 347 325 328 352 131 224 214 182 177 181 181 177 173 172 173 172 172 174 176 177 177 176 180 185 183 177 176 181 181 179 178 174 171 171 171 173 175 172 174 180 179 178 178 176 176 175 172 172 173 175 178 179 178 177 176 178 182 186 188 186
261 251 166 234 219 160 164 173 184 192 187 102 93 184 193 196 198 198 203 210 213 218 231 241 256 287 306 311 317 325 341 348 245 185 177 180 184 176 168 168 170 170 170 172 174 176 174 172 176 184 186 176 165 166 171 173 173 172 174 180 181 180 179 178 178 179 177 177 177 176 175 174 174 176 177 176 176 177 176 175 174 174 179 187 190 188
271 327 311 254 190 154 164 179 188 163 115 93 103 145 165 184 197 202 210 216 216 219 230 238 247 265 287 305 305 307 340 359 243 200 180 176 175 172 170 166 167 170 169 167 170 173 172 171 173 180 185 179 166 163 164 163 164 165 171 181 186 186 185 183 180 178 176 175 176 176 176 175 173 174 176 177 177 177 178 177 175 178 185 189 188 187
278 331 321 277 191 180 175 171 160 139 141 135 136 157 166 179 192 197 211 223 222 226 235 240 245 254 267 285 290 298 311 253 223 191 176 172 169 170 167 161 161 164 161 160 163 165 168 171 169 171 178 183 182 177 170 162 162 166 172 180 187 189 186 181 178 175 175 176 178 180 181 180 178 174 175 179 181 181 181 178 178 183 188 184 180 180
278 313 305 301 263 226 184 166 162 173 179 156 126 132 126 110 167 184 209 225 221 226 233 233 239 245 249 258 256 228 227 235 211 169 162 163 163 162 155 148 151 152 150 153 155 156 163 169 168 167 172 179 186 188 182 174 172 176 180 184 189 189 185 181 176 173 175 178 181 184 185 184 183 180 178 181 183 183 182 179 181 185 185 181 177 177
264 279 286 281 252 232 194 173 169 172 155 122 120 120 107 88 120 152 204 219 205 208 211 212 223 228 223 231 222 204 226 226 156 123 143 155 157 156 148 140 140 141 140 145 150 153 160 164 166 170 173 175 176 179 184 187 185 183 185 187 188 187 187 188 183 178 179 180 180 185 186 184 185 187 185 183 183 185 184 183 186 188 186 182 178 177
256 246 258 260 238 232 214 177 152 117 89 104 109 104 111 132 143 166 199 201 161 166 185 196 208 207 205 214 202 203 244 248 78 81 127 144 144 145 145 136 132 133 134 137 140 145 152 159 164 169 173 174 172 172 183 194 191 182 181 181 181 186 193 195 188 183 182 179 181 187 186 184 188 191 187 184 184 185 186 187 189 189 188 184 179 178
236 226 243 252 224 210 211 178 132 98 85 83 79 98 126 148 166 184 195 154 86 117 159 183 197 194 198 203 189 177 10 26 22 46 119 130 132 131 127 124 125 127 127 129 132 138 147 156 161 165 169 171 172 176 185 191 188 184 185 183 183 191 195 189 183 185 186 183 184 186 186 188 192 192 188 186 186 185 186 189 190 189 189 186 182 181
226 218 220 230 218 198 187 170 137 113 72 31 57 112 156 175 170 170 164 58 50 105 124 163 198 200 200 193 179 73 41 47 54 129 127 127 128 124 120 122 124 122 120 125 132 140 146 149 154 160 163 165 173 184 190 189 189 192 192 185 185 192 192 185 184 186 187 186 185 184 184 189 193 190 186 186 187 186 187 189 190 189 188 187 185 182
280 229 192 177 193 195 177 173 164 131 85 11 76 135 182 204 131 63 37 93 94 30 111 184 203 210 205 183 148 63 48 64 93 124 131 131 127 125 127 128 123 119 122 128 133 136 139 142 146 149 153 163 177 188 192 193 194 191 183 174 180 191 191 187 186 184 179 179 179 178 180 186 189 186 183 184 185 186 186 187 187 186 187 186 184 181
338 271 188 136 75 215 176 160 140 98 77 358 342 126 102 7 14 353 345 74 71 32 316 214 195 200 198 172 132 91 80 94 108 122 131 133 129 128 129 125 121 122 126 128 130 132 133 135 136 134 142 168 187 192 196 198 182 159 155 164 179 187 184 181 183 179 174 173 173 171 175 182 184 184 184 185 185 185 184 184 184 185 185 184 182 180
9 347 299 33 29 41 104 88 60 76 77 22 359 29 23 16 14 350 339 359 25 23 359 324 177 170 174 153 116 97 98 111 120 126 131 131 127 124 124 122 123 125 126 127 128 130 129 128 129 132 142 170 193 196 201 193 165 153 158 170 182 187 182 180 180 175 171 170 167 167 170 175 180 184 186 185 184 184 184 183 181 181 182 182 182 181
34 332 289 263 116 104 81 76 77 66 52 37 29 25 13 15 19 10 5 11 15 14 356 336 75 137 155 140 93 92 105 117 125 128 128 125 122 120 121 122 124 126 127 128 128 128 127 126 128 135 142 160 188 193 194 184 172 171 171 171 181 187 184 180 177 172 169 166 163 165 167 170 176 182 183 182 182 184 184 181 178 178 181 184 183 182
65 306 271 168 145 141 98 76 66 49 33 22 25 31 27 31 33 29 32 36 29 31 47 62 87 119 127 98 77 94 110 118 123 124 122 121 121 121 122 123 124 125 126 128 129 128 129 129 130 137 142 150 171 180 180 178 178 181 176 169 175 183 183 179 175 170 166 161 159 162 165 168 174 177 175 176 179 182 183 183 181 181 182 183 183 180
1 314 284 103 88 102 101 88 75 63 40 16 19 23 10 23 41 50 56 59 61 66 74 80 95 108 101 80 83 100 107 112 118 119 118 119 118 119 121 122 123 123 124 127 131 131 129 131 135 136 136 139 148 165 180 182 176 175 173 167 167 172 176 176 174 171 166 161 158 160 165 170 174 172 170 173 178 182 183 184 185 185 185 187 188 187
1 333 343 112 102 94 95 98 107 97 68 26 26 25 3 13 48 63 67 71 74 77 80 80 79 83 85 87 95 100 98 99 106 110 112 114 115 116 119 120 120 122 123 124 126 124 123 127 131 129 124 127 138 151 178 194 186 178 175 171 168 169 170 169 170 170 166 162 159 161 167 171 169 166 167 170 174 180 185 186 187 188 191 195 197 198
59 328 122 135 128 119 123 136 129 107 94 58 30 19 6 24 61 72 71 67 66 71 80 83 78 75 80 90 99 103 98 91 94 99 102 104 108 112 115 116 117 119 120 120 118 117 117 117 120 120 120 126 136 143 158 188 193 186 181 177 172 169 164 161 164 166 164 162 161 163 168 169 165 165 169 168 168 176 185 190 192 193 194 199 202 205
134 232 175 126 111 114 122 120 88 79 96 86 40 20 21 32 59 72 69 62 61 63 70 79 82 80 79 82 89 98 100 98 99 101 100 100 105 108 110 112 113 113 115 117 117 116 114 112 114 118 124 132 137 138 148 173 191 195 190 179 172 169 163 157 159 164 164 162 164 167 169 170 169 167 170 171 171 174 178 185 196 201 203 205 207 208